When you browse on this site, cookies collect data to enhance your experience and personalize the content and advertising you see.
Visit our Privacy Policy to learn more. By continuing to use the site, you agree to this use of cookies and data.
  • In Austria
  • List of Countries
  • For 7 days
  • Water Temperature
  • Weather Map
  • News
  • Weather Widgets
  • user-avatar
    Login

    Hourly Weather Izmaylovka

    Today, 25 May, Monday

    Time Temperature Precipitation Wind Pressure Humidity
    00:00 +13°C° 0 mm 3 mps 758 mmHg 83%
    01:00 +13°C° 0 mm 3 mps 758 mmHg 86%
    02:00 +13°C° 0 mm 3 mps 758 mmHg 85%
    03:00 +13°C° 0 mm 3 mps 758 mmHg 84%
    04:00 +13°C° 0 mm 3 mps 758 mmHg 84%
    05:00 +13°C° 0 mm 4 mps 759 mmHg 82%
    06:00 +13°C° 0 mm 5 mps 759 mmHg 80%
    07:00 +14°C° 0 mm 6 mps 759 mmHg 77%
    08:00 +14°C° 0.1 mm 6 mps 760 mmHg 73%
    09:00 +15°C° 0.1 mm 7 mps 761 mmHg 69%
    10:00 +16°C° 0 mm 7 mps 762 mmHg 67%
    11:00 +16°C° 0 mm 6 mps 762 mmHg 65%
    12:00 +17°C° 0 mm 5 mps 762 mmHg 63%
    13:00 +18°C° 0 mm 4 mps 762 mmHg 60%
    14:00 +17°C° 0 mm 5 mps 763 mmHg 59%
    15:00 +19°C° 0 mm 5 mps 763 mmHg 57%
    16:00 +19°C° 0 mm 6 mps 763 mmHg 55%
    17:00 +17°C° 0 mm 5 mps 763 mmHg 59%
    18:00 +17°C° 0 mm 5 mps 763 mmHg 62%
    19:00 +17°C° 0 mm 4 mps 762 mmHg 66%
    20:00 +15°C° 0 mm 5 mps 763 mmHg 68%
    21:00 +14°C° 0 mm 5 mps 763 mmHg 70%
    22:00 +12°C° 0 mm 5 mps 763 mmHg 72%
    23:00 +12°C° 0 mm 5 mps 763 mmHg 73%

    Tomorrow, 26 May, Tuesday

    Time Temperature Precipitation Wind Pressure Humidity
    00:00 +12°C° 0 mm 5 mps 763 mmHg 75%
    01:00 +10°C° 0 mm 5 mps 763 mmHg 76%
    02:00 +10°C° 0 mm 6 mps 763 mmHg 73%
    03:00 +10°C° 0 mm 7 mps 762 mmHg 70%
    04:00 +11°C° 0 mm 8 mps 762 mmHg 68%
    05:00 +11°C° 0 mm 8 mps 762 mmHg 66%
    06:00 +12°C° 0 mm 9 mps 762 mmHg 64%
    07:00 +13°C° 0 mm 9 mps 761 mmHg 62%
    08:00 +15°C° 0 mm 9 mps 761 mmHg 61%
    09:00 +17°C° 0 mm 9 mps 761 mmHg 59%
    10:00 +18°C° 0 mm 9 mps 760 mmHg 57%
    11:00 +21°C° 0 mm 9 mps 760 mmHg 57%
    12:00 +22°C° 0 mm 9 mps 759 mmHg 56%
    13:00 +24°C° 0 mm 9 mps 759 mmHg 56%
    14:00 +26°C° 0 mm 9 mps 758 mmHg 56%
    15:00 +26°C° 0 mm 9 mps 758 mmHg 56%
    16:00 +27°C° 0 mm 8 mps 757 mmHg 56%
    17:00 +26°C° 0 mm 9 mps 757 mmHg 59%
    18:00 +26°C° 0 mm 9 mps 756 mmHg 62%
    19:00 +24°C° 0 mm 9 mps 756 mmHg 64%
    20:00 +24°C° 0 mm 10 mps 755 mmHg 63%
    21:00 +23°C° 0 mm 10 mps 755 mmHg 62%
    22:00 +23°C° 0 mm 11 mps 755 mmHg 61%
    23:00 +23°C° 0 mm 11 mps 754 mmHg 61%

    Day after tomorrow, 27 May, Wednesday

    Time Temperature Precipitation Wind Pressure Humidity
    00:00 +22°C° 0 mm 10 mps 754 mmHg 61%
    01:00 +22°C° 0 mm 10 mps 754 mmHg 61%
    02:00 +22°C° 0 mm 10 mps 754 mmHg 62%
    03:00 +22°C° 0 mm 9 mps 754 mmHg 63%
    04:00 +21°C° 0 mm 9 mps 754 mmHg 64%
    05:00 +22°C° 0 mm 8 mps 755 mmHg 66%
    06:00 +22°C° 0 mm 7 mps 755 mmHg 68%
    07:00 +22°C° 0 mm 7 mps 755 mmHg 70%
    08:00 +23°C° 0 mm 6 mps 755 mmHg 68%
    09:00 +25°C° 0 mm 5 mps 756 mmHg 66%
    10:00 +26°C° 0 mm 5 mps 756 mmHg 64%
    11:00 +27°C° 0 mm 5 mps 756 mmHg 62%
    12:00 +28°C° 0 mm 5 mps 756 mmHg 59%
    13:00 +28°C° 0 mm 5 mps 756 mmHg 57%
    14:00 +28°C° 0 mm 5 mps 756 mmHg 57%
    15:00 +28°C° 0 mm 4 mps 757 mmHg 57%
    16:00 +28°C° 0 mm 4 mps 757 mmHg 57%
    17:00 +27°C° 0 mm 3 mps 757 mmHg 59%
    18:00 +27°C° 0 mm 2 mps 757 mmHg 62%
    19:00 +26°C° 0 mm 2 mps 757 mmHg 64%
    20:00 +25°C° 0 mm 2 mps 757 mmHg 69%
    21:00 +23°C° 0 mm 2 mps 757 mmHg 74%
    22:00 +20°C° 0 mm 3 mps 757 mmHg 79%
    23:00 +20°C° 0 mm 3 mps 757 mmHg 83%

    28 May, Thursday

    Time Temperature Precipitation Wind Pressure Humidity
    00:00 +19°C° 0 mm 3 mps 757 mmHg 86%
    01:00 +18°C° 0 mm 3 mps 757 mmHg 90%
    02:00 +18°C° 0 mm 3 mps 757 mmHg 91%
    03:00 +17°C° 0 mm 3 mps 757 mmHg 92%
    04:00 +17°C° 0 mm 3 mps 757 mmHg 93%
    05:00 +18°C° 0 mm 3 mps 758 mmHg 90%
    06:00 +18°C° 0 mm 3 mps 758 mmHg 86%
    07:00 +19°C° 0 mm 4 mps 758 mmHg 83%
    08:00 +20°C° 0 mm 4 mps 758 mmHg 78%
    09:00 +21°C° 0 mm 4 mps 757 mmHg 72%
    10:00 +22°C° 0 mm 4 mps 757 mmHg 67%
    11:00 +25°C° 0 mm 4 mps 757 mmHg 61%
    12:00 +26°C° 0 mm 4 mps 757 mmHg 55%
    13:00 +27°C° 0 mm 4 mps 757 mmHg 50%
    14:00 +27°C° 0 mm 4 mps 757 mmHg 49%
    15:00 +27°C° 0 mm 4 mps 757 mmHg 49%
    16:00 +27°C° 0 mm 4 mps 756 mmHg 48%
    17:00 +26°C° 0 mm 4 mps 756 mmHg 54%
    18:00 +25°C° 0 mm 4 mps 756 mmHg 60%
    19:00 +23°C° 0 mm 4 mps 756 mmHg 66%
    20:00 +22°C° 0 mm 5 mps 756 mmHg 70%
    21:00 +20°C° 0 mm 5 mps 756 mmHg 74%
    22:00 +19°C° 0 mm 5 mps 756 mmHg 78%
    23:00 +17°C° 0 mm 5 mps 756 mmHg 81%

    29 May, Friday

    Time Temperature Precipitation Wind Pressure Humidity
    00:00 +16°C° 0 mm 5 mps 756 mmHg 85%
    01:00 +16°C° 0 mm 5 mps 756 mmHg 88%
    02:00 +15°C° 0 mm 5 mps 756 mmHg 88%
    03:00 +14°C° 0 mm 6 mps 756 mmHg 87%
    04:00 +14°C° 0 mm 6 mps 755 mmHg 86%
    05:00 +14°C° 0 mm 6 mps 755 mmHg 82%
    06:00 +15°C° 0 mm 7 mps 755 mmHg 77%
    07:00 +16°C° 0 mm 7 mps 755 mmHg 72%
    08:00 +18°C° 0 mm 7 mps 754 mmHg 68%
    09:00 +20°C° 0 mm 7 mps 754 mmHg 63%
    10:00 +22°C° 0 mm 8 mps 754 mmHg 58%
    11:00 +24°C° 0 mm 7 mps 754 mmHg 56%
    12:00 +26°C° 0 mm 7 mps 754 mmHg 54%
    13:00 +28°C° 0 mm 7 mps 754 mmHg 52%
    14:00 +28°C° 0 mm 7 mps 753 mmHg 53%
    15:00 +29°C° 0 mm 7 mps 753 mmHg 54%
    16:00 +29°C° 0 mm 7 mps 753 mmHg 55%
    17:00 +28°C° 0 mm 7 mps 752 mmHg 59%
    18:00 +28°C° 0 mm 6 mps 752 mmHg 63%
    19:00 +27°C° 0 mm 6 mps 752 mmHg 67%
    20:00 +24°C° 0 mm 6 mps 752 mmHg 69%
    21:00 +23°C° 0 mm 6 mps 752 mmHg 70%
    22:00 +21°C° 0 mm 6 mps 752 mmHg 72%
    23:00 +21°C° 0 mm 6 mps 752 mmHg 75%

    30 May, Saturday

    Time Temperature Precipitation Wind Pressure Humidity
    00:00 +20°C° 0 mm 5 mps 752 mmHg 77%
    01:00 +20°C° 0 mm 5 mps 751 mmHg 80%
    02:00 +20°C° 0 mm 5 mps 751 mmHg 82%
    03:00 +19°C° 0 mm 4 mps 751 mmHg 83%
    04:00 +19°C° 0 mm 4 mps 751 mmHg 85%
    05:00 +20°C° 0 mm 5 mps 751 mmHg 80%
    06:00 +21°C° 0 mm 5 mps 751 mmHg 74%
    07:00 +22°C° 0 mm 6 mps 751 mmHg 69%
    08:00 +24°C° 0 mm 6 mps 751 mmHg 64%
    09:00 +28°C° 0 mm 6 mps 751 mmHg 58%
    10:00 +30°C° 0 mm 6 mps 751 mmHg 53%
    11:00 +32°C° 0 mm 6 mps 751 mmHg 47%
    12:00 +34°C° 0 mm 6 mps 751 mmHg 41%
    13:00 +36°C° 0 mm 6 mps 751 mmHg 36%
    14:00 +38°C° 0 mm 6 mps 750 mmHg 34%
    15:00 +38°C° 0 mm 6 mps 750 mmHg 33%
    16:00 +38°C° 0 mm 6 mps 750 mmHg 32%
    17:00 +36°C° 0 mm 6 mps 750 mmHg 34%
    18:00 +34°C° 0 mm 5 mps 750 mmHg 36%
    19:00 +33°C° 0 mm 5 mps 750 mmHg 39%
    20:00 +32°C° 0.1 mm 5 mps 750 mmHg 36%
    21:00 +32°C° 0.1 mm 4 mps 750 mmHg 34%
    22:00 +30°C° 0.1 mm 4 mps 750 mmHg 31%
    23:00 +29°C° 0 mm 4 mps 750 mmHg 35%
    Show more